DW5256 Weather Reports


time (UTC)temp
F
wind
direction
speed
knots
gust
knots
rain 1hr
in
rain 24hr
in
rain mn
in
humidity
%
barometer
mb
20260502150530 59 360 0.0 0.0 0.00 0.00 0.00 85 1012.9
20260502130517 59 271 0.0 0.0 0.00 0.00 0.00 84 1012.1
20260502123517 60 271 0.0 0.0 0.00 0.00 0.00 84 1012.1
20260502122033 59 271 0.0 0.0 0.00 0.00 0.00 84 1012.0
20260502120518 59 271 0.0 0.0 0.00 0.00 0.00 84 1011.9
20260502115018 59 271 0.0 0.0 0.00 0.00 0.00 84 1011.9
20260502113525 59 271 0.0 0.0 0.00 0.00 0.00 84 1011.7
20260502112024 59 271 0.0 0.0 0.00 0.00 0.00 83 1011.8
20260502110524 60 271 0.0 0.0 0.00 0.00 0.00 83 1011.8
20260502105021 60 271 0.0 0.0 0.00 0.00 0.00 83 1011.8
20260502103521 60 271 0.0 0.0 0.00 0.00 0.00 83 1011.6
20260502102021 60 271 0.0 0.0 0.00 0.00 0.00 83 1011.7
20260502100524 60 271 0.0 0.0 0.00 0.00 0.00 83 1011.5
20260502090526 60 271 0.0 0.0 0.00 0.00 0.00 83 1011.6
20260502070523 61 269 0.0 0.0 0.00 0.00 0.00 81 1012.4
20260502065053 61 269 0.0 0.0 0.00 0.00 0.00 81 1012.4
20260502063515 60 269 0.0 0.0 0.00 0.00 0.00 81 1012.1
20260502062033 60 269 0.0 0.0 0.00 0.00 0.00 81 1012.2
20260502060538 61 269 0.0 0.0 0.00 0.00 0.00 81 1012.3
20260502055016 61 269 0.0 0.0 0.00 0.00 0.00 81 1012.4
20260502053534 61 269 0.0 0.0 0.00 0.00 0.00 81 1012.4
20260502052047 61 269 0.0 0.0 0.00 0.00 0.00 81 1012.3
20260502050531 61 269 0.0 0.0 0.00 0.00 0.00 80 1012.3
20260502045024 61 269 0.0 0.0 0.00 0.00 0.00 80 1012.3
20260502043521 61 269 0.0 0.0 0.00 0.00 0.00 80 1012.2
20260502042018 61 268 0.0 0.0 0.00 0.00 0.00 79 1012.1
20260502040545 62 268 0.0 0.0 0.00 0.00 0.00 79 1012.0
20260502035023 62 268 0.0 0.0 0.00 0.00 0.00 79 1011.9
20260502033549 62 265 0.0 0.0 0.00 0.00 0.00 79 1011.7
20260502032028 62 264 0.0 0.0 0.00 0.00 0.00 78 1011.6
20260502030530 62 263 0.0 0.0 0.00 0.00 0.00 78 1011.3
20260502025029 62 263 0.0 0.0 0.00 0.00 0.00 77 1011.2
20260502023523 63 260 0.0 0.0 0.00 0.00 0.00 76 1011.2
20260502022022 63 225 0.0 4.3 0.00 0.00 0.00 75 1011.2
20260502020523 65 260 0.0 7.0 0.00 0.00 0.00 73 1010.9
20260502015021 66 262 0.9 7.8 0.00 0.00 0.00 72 1010.9
20260502013522 68 273 0.0 6.1 0.00 0.00 0.00 70 1010.8
20260502012020 68 267 0.0 6.1 0.00 0.00 0.00 69 1010.6
20260502010520 69 215 0.0 0.9 0.00 0.00 0.00 69 1010.6
20260502005021 69 245 2.6 7.8 0.00 0.00 0.00 68 1010.5
20260502003521 69 232 0.9 7.0 0.00 0.00 0.00 68 1010.4
20260502002020 70 233 0.0 6.1 0.00 0.00 0.00 67 1010.3
20260502000522 71 200 0.0 7.8 0.00 0.00 0.00 65 1010.1
20260501235022 72 242 0.0 7.8 0.00 0.00 0.00 65 1010.2
20260501233519 72 243 0.9 7.0 0.00 0.00 0.00 65 1010.1
20260501232016 72 242 1.7 7.8 0.00 0.00 0.00 63 1010.2
20260501230516 73 271 0.9 7.0 0.00 0.00 0.00 62 1010.4
20260501223535 73 254 4.3 8.7 0.00 0.00 0.00 61 1010.6
20260501222032 72 260 3.5 8.7 0.00 0.00 0.00 62 1010.7
20260501220551 72 242 2.6 8.7 0.00 0.00 0.00 63 1010.8
20260501215026 72 242 0.0 9.6 0.00 0.00 0.00 63 1010.8
20260501213525 72 237 3.5 12.2 0.00 0.00 0.00 62 1011.1
20260501212022 72 272 5.2 11.3 0.00 0.00 0.00 62 1011.2
20260501210541 72 233 4.3 9.6 0.00 0.00 0.00 61 1011.4
20260501205018 73 221 1.7 9.6 0.00 0.00 0.00 61 1011.3
20260501203518 72 243 2.6 8.7 0.00 0.00 0.00 62 1011.2
20260501202014 72 283 1.7 10.4 0.00 0.00 0.00 61 1011.3
20260501200534 73 280 3.5 7.8 0.00 0.00 0.00 60 1011.4
20260501195029 72 260 3.5 8.7 0.00 0.00 0.00 60 1011.6
20260501193543 71 304 0.0 4.3 0.00 0.00 0.00 62 1011.8
20260501192015 70 260 2.6 7.8 0.00 0.00 0.00 63 1011.9
20260501190532 69 247 0.0 4.3 0.00 0.00 0.00 64 1012.2
20260501185026 68 268 1.7 7.0 0.00 0.00 0.00 66 1012.4
20260501183542 68 280 0.0 7.8 0.00 0.00 0.00 68 1012.6
20260501182018 66 284 0.0 6.1 0.00 0.00 0.00 68 1012.7
20260501180542 66 252 0.0 6.1 0.00 0.00 0.00 69 1012.8
20260501175014 65 287 0.0 0.0 0.00 0.00 0.00 70 1012.9
20260501173531 63 360 0.9 3.5 0.00 0.00 0.00 73 1013.0
20260501172024 62 313 0.0 0.0 0.00 0.00 0.00 75 1013.0
20260501170524 62 340 0.0 0.0 0.00 0.00 0.00 74 1013.3
20260501165020 60 74 0.0 3.5 0.00 0.00 0.00 77 1013.3
20260501163516 60 188 0.0 0.0 0.00 0.00 0.00 78 1013.4
20260501162030 59 202 0.0 0.0 0.00 0.00 0.00 79 1013.2
20260501160541 59 203 0.0 0.0 0.00 0.00 0.00 80 1013.3
20260501155031 58 203 0.0 0.0 0.00 0.00 0.00 80 1013.3
20260501153533 58 203 0.0 0.0 0.00 0.00 0.00 81 1013.3
20260501152025 58 203 0.0 0.0 0.00 0.00 0.00 81 1013.2